Regional Weather Roundup
Issued by NWS Austin/San Antonio, TX

Home | Current Version | Previous Version | Text Only | Print | Product List | Glossary On
Versions: 1 2 3 4 5 6 7 8 9 10 11 12 13 14 15 16 17 18 19 20 21 22 23 24 25 26 27 28 29 30 31 32 33 34 35 36 37 38 39 40 41 42 43 44 45 46 47 48 49 50
000
ASUS44 KEWX 271911
RWREWX
SOUTH TEXAS REGIONAL WEATHER ROUNDUP
NATIONAL WEATHER SERVICE AUSTIN/SAN ANTONIO TX
200 PM CDT THU APR 27 2017

NOTE: "FAIR" INDICATED FEW OR NO CLOUDS BELOW 12,000 FEET WITH NO
SIGNIFICANT WEATHER AND/OR OBSTRUCTIONS TO VISIBILITY.

* - THESE STATIONS ARE NOT NWS OR FAA STATIONS...AND ARE NOT SUBJECT
    TO NWS AND FAA QUALITY CONTROL.

TXZ171-172-183>190-272000-
TEXAS HILL COUNTRY AND EDWARDS PLATEAU

CITY           SKY/WX    TMP DP  RH WIND       PRES   REMARKS
JUNCTION       SUNNY     83  40  21 S21G28    29.71F
*LLANO         SUNNY     82  43  24 S12G21    29.74F
BURNET         SUNNY     78  43  28 S10G24    29.75F
*HORSESHOE BAY SUNNY     80  43  27 SE14G20   29.75F
*KERRVILLE     MOSUNNY   79  46  31 S14G21    29.77F
*FREDERICKSBRG SUNNY     79  38  23 SW17      29.75F
*ROCKSPRINGS   SUNNY     75  52  43 S17G25    29.77F
*BOERNE STAGE  SUNNY     73  45  35 S10G16    29.78F
*CASTROVILLE   SUNNY     81  44  27 S10       29.77F
HONDO          MOSUNNY   80  48  32 S13       29.75F
*UVALDE        MOSUNNY   78  49  36 S13       29.74F
DEL RIO        MOSUNNY   80  46  30 SE20G28   29.70F
LAUGHLIN AFB   PTSUNNY   81  50  34 S21       29.70F
CARRIZO SPRGS  SUNNY     82  48  30 S13G18    29.72F
*EAGLE PASS    NOT AVBL
$$

TXZ173-191>194-202-209-217>225-228-272000-
CENTRAL AND SOUTH CENTRAL TEXAS

CITY           SKY/WX    TMP DP  RH WIND       PRES   REMARKS
GEORGETOWN     SUNNY     77  45  31 S12G18    29.75F
AUSTIN/BERGSTM PTSUNNY   80  46  30 S14       29.75F
AUSTIN/MABRY   SUNNY     81  48  31 VRB6      29.76F
*AUSTIN/EXEC   FAIR      75  48  38 S10       29.76F
*LAGO VISTA    SUNNY     78  44  30 SE5       29.76F
SAN MARCOS     SUNNY     79  46  31 S12       29.77F
NEW BRAUNFELS  SUNNY     81  48  31 S15       29.75F
RANDOLPH AFB   MOSUNNY   80  46  30 S13       29.75F
PT SAN ANTONIO MOSUNNY   80  47  30 SE13G18   29.74F
SAN ANTONIO    PTSUNNY   78  48  34 S14G21    29.76F
STINSON FIELD  SUNNY     82  48  30 S10       29.74F
*LA GRANGE     SUNNY     78  53  42 S9        29.75F
*GIDDINGS      SUNNY     76  48  36 SE6       29.77F
*GONZALES      SUNNY     81  52  36 S14G20    29.74F
$$

TXZ163>164-176>182-195>201-210>213-226-227-235-272000-
SOUTHEAST TEXAS

CITY           SKY/WX    TMP DP  RH WIND       PRES   REMARKS
COLLEGE STN    SUNNY     76  49  38 SE12      29.76F
*BRYAN         SUNNY     76  50  40 SE7       29.77F
*CALDWELL      NOT AVBL
*CROCKETT      SUNNY     72  50  46 SE6       29.81F
*BRENHAM       SUNNY     76  51  40 SE8       29.78F
HUNTSVILLE     SUNNY     76  44  32 S6        29.77F
CONROE         SUNNY     76  48  37 SE9       29.78F
HOUSTON BUSH   MOSUNNY   78  52  40 SE5       29.78F
HOUSTON HOBBY  MOSUNNY   74  50  42 SE14      29.78F
*HOUSTON SW AP SUNNY     77  53  42 SE9       29.78F
PEARLAND       SUNNY     78  51  38 E13       29.79F
HOUSTON HOOKS  SUNNY     77  49  37 CALM      29.78F
ELLINGTON FLD  MOSUNNY   72  50  46 E10       29.80F
SUGAR LAND     SUNNY     79  51  37 E8        29.77F
*HOUSTON EXEC  SUNNY     77  48  36 S6        29.78F
*CLEVELAND MUN SUNNY     76  52  43 CALM      29.80F
*WHARTON       SUNNY     79  48  33 SE5       29.78F
*COLUMBUS      FAIR      76  49  37 SE7       29.78F
*EAGLE LAKE    CLEAR     79  53  41 S8        29.77F
$$

TXZ214>216-236>238-272000-
THE UPPER TEXAS COAST

CITY           SKY/WX    TMP DP  RH WIND       PRES   REMARKS
*ORANGE        SUNNY     74  55  51 SE5       29.82F
PORT ARTHUR    SUNNY     77  50  38 E9        29.80F
GALVESTON      SUNNY     75  60  59 E13       29.80F
ANGLETON       SUNNY     77  59  53 SE14      29.79F
*BAY CITY      SUNNY     79  59  50 E7        29.77F
PALACIOS       SUNNY     77  58  51 E12       29.77F
$$

TXZ229>234-239>247-272000-
TEXAS COASTAL BEND AND RIO GRANDE PLAINS

CITY           SKY/WX    TMP DP  RH WIND       PRES   REMARKS
VICTORIA       SUNNY     78  60  53 S9G16     29.78F
*BEEVILLE      SUNNY     84  61  45 SE6       29.76F
ROCKPORT       CLOUDY    78  61  55 E9        29.76F
*PORT ARANSAS  MOSUNNY   76  62  62 E9        29.77F
*PORT LAVACA   SUNNY     74  64  69 E12       29.79F
*INGLESIDE     CLOUDY    80  64  58 NE14      29.76F
CORPUS CHRISTI MOSUNNY   82  66  58 E9G16     29.75F
CORPUS NAS     PTSUNNY   79  67  66 SE13      29.75F
*ROBSTOWN      MOSUNNY   85  66  52 SE13      29.75F
ALICE          SUNNY     86  63  45 SE13      29.73F
KINGSVILLE NAS MOSUNNY   84  69  60 SE8G21    29.74F
COTULLA        SUNNY     87  45  23 VRB7G17   29.74F
*FAITH RANCH   SUNNY     88  54  31 VRB6G18   29.72F
LAREDO         SUNNY     87  65  47 E16       29.72F
$$

TXZ248>255-272000-
DEEP SOUTH TEXAS

CITY           SKY/WX    TMP DP  RH WIND       PRES   REMARKS
BROWNSVILLE    MOSUNNY   87  72  60 E14       29.72F HX  93
PORT ISABEL    CLOUDY    83  71  67 E13G23    29.73F
*SOUTH PADRE   NOT AVBL
HARLINGEN      MOSUNNY   87  71  58 E13G24    29.71F HX  93
*HEBBRONVILLE  SUNNY     84  61  46 SE6       29.74F
MCALLEN        MOSUNNY   92  68  45 SE13G25   29.71F HX  96
*WESLACO       PTSUNNY   87  69  56 SE12      29.70F HX  91
FALFURRIAS     SUNNY     86  65  49 SE8G17    29.72F
EDINBURG       CLOUDY    88  68  50 E10G20    29.71F HAZE    HX  92
*ZAPATA        MOSUNNY   90  63  40 SE10G21   29.69F HX  90
$$

TXZ213>215-236>238-242>244-246-247-251-254-255-272000-
CMAN STATIONS

STATION/POSITION TIME  TEMP    WIND        PRES    WAVE
                       AIR SEA DIR/SP/G            HT/PER
                 (UTC) (F)     (DEG/KT/KT) (MB)    (FT/S)
SABINE PASS      1842   70 76  130/  9/ 11 1010.6
SEA RIM ST PARK  1900   69     120/ 10/ 12 1009.5
NORTH JETTY/GLS  1836      73   80/ 12/ 16 1009.0
EAGLE POINT      1848   68 74  140/ 12/ 16 1008.9
MORGANS POINT    1848   71 75  140/  7/ 11 1008.8
MISSION/ARANSAS  1800   73                 1009.0
PORT O`CONNOR    1848   71      80/ 11/ 14 1008.0
PORT ARANSAS     1900   72 77   80/  8/ 10 1008.1
MALAQUITE BEACH  1848   73 77  100/  8/ 11 1008.3
BAFFIN BAY       1848   74 78   70/  9/ 12 1007.6
PORT ISABEL      1848   78 80  360/  4/  7 1006.8
$$




USA.gov is the U.S. government's official web portal to all federal, state and local government web resources and services.